Wind_Speed
21 20 20 22 24 16 13 12 11 11 11 11 10 10 10 9 8 7 6 6 6 5 5 4 3 2 2 2 2 3 4 4 5 5 5 5 5 6 6 5 5 5 5 5 5 6 5 6 6
20 18 21 24 18 13 13 12 12 13 12 11 10 10 9 9 8 7 6 6 6 5 4 4 3 1 1 1 2 3 3 4 4 5 5 5 5 5 5 5 5 5 5 5 6 6 5 6 6
19 19 24 21 12 12 12 12 12 13 13 12 11 10 10 9 9 8 7 6 6 6 5 3 3 1 0 1 2 3 3 4 4 4 4 4 5 5 5 5 5 5 5 5 5 5 5 5 5
18 22 22 15 11 12 11 12 12 13 12 12 11 10 10 10 9 8 8 7 6 6 5 4 3 1 1 1 2 3 3 4 4 4 4 4 4 4 5 5 5 5 5 5 5 5 5 5 5
18 20 17 12 12 12 11 11 12 12 13 12 12 12 12 11 10 9 8 8 7 6 6 5 3 2 1 2 2 3 3 4 4 4 4 4 4 4 5 5 5 4 5 6 6 5 5 5 6
18 16 15 10 11 11 10 11 11 12 13 13 13 13 13 12 11 10 9 8 8 7 6 5 4 3 2 2 2 3 4 4 4 4 4 4 4 4 5 5 5 5 6 6 6 6 6 6 6
16 14 11 7 9 9 10 10 11 12 13 13 13 12 13 13 12 11 10 9 9 8 8 6 4 3 2 2 2 3 4 4 4 4 4 4 4 4 5 5 5 6 6 5 5 4 6 5 6
12 10 9 7 6 7 8 9 10 11 12 13 14 15 14 13 12 11 10 10 9 9 8 7 5 3 3 2 2 3 3 3 3 4 3 3 4 5 5 5 5 6 5 5 5 5 5 5 5
9 10 9 5 4 7 7 8 10 11 12 13 14 15 14 13 12 11 11 10 10 10 9 8 6 4 3 3 2 3 3 4 4 4 4 4 4 5 5 5 5 6 5 5 5 5 5 5 5
7 7 6 3 2 5 7 9 9 9 10 13 14 15 15 14 13 12 11 11 10 11 11 10 8 5 4 3 2 2 3 3 4 4 4 4 4 4 4 5 5 5 5 4 4 5 5 5 4
5 5 4 2 2 2 5 7 9 10 12 13 14 15 15 15 13 12 11 11 11 11 11 10 9 6 5 5 3 2 2 2 3 3 4 5 4 3 3 4 5 5 5 4 4 5 5 5 4
3 2 0 1 3 4 4 5 7 10 12 13 14 15 16 14 14 14 13 12 12 12 12 11 10 8 6 5 3 2 2 2 1 2 3 4 4 3 3 4 4 4 4 4 5 5 5 5 4
0 1 1 2 4 4 4 5 6 9 12 13 14 15 16 14 14 14 14 13 13 13 12 11 10 9 6 5 3 2 2 2 2 1 1 2 2 3 4 3 4 4 4 4 4 5 4 4 4
3 1 1 2 3 5 4 5 7 11 11 12 13 14 15 14 14 14 15 14 13 13 12 11 11 9 7 6 4 3 3 3 2 1 1 2 3 4 4 4 3 4 4 4 4 4 4 4 4
2 3 2 4 4 6 6 5 7 11 11 12 13 14 14 14 14 16 15 15 14 13 12 12 11 10 8 7 6 4 4 3 2 2 3 3 4 4 5 4 4 4 5 4 4 4 4 4 3
4 3 3 5 6 6 7 7 7 10 11 12 12 13 14 14 15 15 15 15 15 14 13 13 12 10 8 7 6 5 5 4 3 3 3 4 5 5 5 5 5 5 5 5 5 4 4 4 3
4 4 3 6 8 6 6 8 10 10 11 13 12 12 14 14 15 16 16 15 14 14 13 13 13 11 9 8 7 5 5 5 5 5 5 5 6 7 6 6 7 6 6 6 6 6 5 4 3
3 4 5 6 9 6 6 8 10 11 11 12 12 13 13 14 15 15 16 15 14 14 13 13 14 11 10 9 8 7 6 6 6 6 6 7 7 7 7 7 8 8 8 8 7 7 6 5 4
9 8 6 7 10 7 6 8 10 11 12 13 13 14 13 14 15 15 15 15 14 14 14 13 13 12 10 9 9 8 7 7 7 7 7 7 7 7 8 8 8 8 9 9 8 7 7 6 6
10 9 7 7 11 8 6 8 10 11 12 14 14 14 14 15 15 15 15 15 14 14 14 14 14 13 11 10 9 8 8 8 8 7 6 7 7 7 8 8 9 9 9 9 10 9 8 8 7
10 8 8 9 11 7 7 9 12 14 13 14 14 14 14 15 15 15 14 14 14 14 14 15 13 13 12 10 8 8 8 8 8 7 7 7 6 7 8 9 9 9 10 10 10 10 10 10 9
9 9 10 10 9 6 7 9 14 16 14 13 14 14 15 16 15 15 14 14 14 14 14 14 13 11 10 10 8 8 8 8 7 7 6 6 7 7 8 8 9 9 10 10 11 11 11 11 11
12 12 11 10 9 7 6 9 12 15 14 12 13 13 15 16 16 15 14 14 14 14 14 13 13 11 10 9 8 8 8 7 7 6 6 6 7 7 8 8 9 10 10 11 12 12 13 13 12
14 13 10 8 8 9 8 9 11 14 14 14 14 14 15 16 15 14 14 15 15 14 14 14 13 12 10 9 9 8 8 7 7 7 6 6 7 7 8 9 9 10 11 11 12 13 13 13 13
15 13 10 9 10 10 9 10 13 15 16 16 16 16 15 14 14 13 14 15 14 14 13 13 12 12 11 10 9 8 8 7 7 7 7 7 7 8 9 9 10 10 11 12 13 13 13 14 14
16 14 11 9 9 11 9 9 13 17 17 16 16 14 14 14 14 14 14 14 13 13 13 13 13 12 12 11 10 10 9 8 8 7 8 8 8 8 9 10 10 11 12 13 14 14 15 15 16
17 16 13 13 13 14 13 11 15 18 16 15 14 14 14 14 14 13 13 13 13 13 13 13 13 13 13 11 10 10 10 9 8 8 8 9 9 10 10 10 11 11 12 13 15 15 16 16 17
20 17 16 17 16 15 13 14 16 17 15 15 15 15 14 14 13 13 13 13 12 13 13 13 12 12 12 11 10 10 9 8 8 8 9 9 10 11 11 11 11 11 12 13 15 16 16 17 18
21 21 19 18 17 15 14 16 16 18 15 15 16 15 14 15 14 12 12 13 13 13 13 13 12 12 12 11 10 10 9 9 9 9 10 10 11 12 12 12 12 12 12 13 15 16 17 18 19
21 21 21 21 19 18 16 17 17 16 17 16 17 16 14 15 14 14 13 13 13 14 13 13 12 12 12 11 10 10 9 9 9 10 11 11 11 12 12 13 13 14 14 15 15 17 18 19 19
Wind_Direction
80 78 76 66 61 58 54 51 47 49 53 56 57 57 59 57 54 53 53 58 61 65 70 73 88 113 144 168 179 182 179 182 183 178 175 170 164 159 155 154 144 136 134 129 123 119 115 106 98
85 79 70 65 59 44 46 42 44 45 46 47 48 48 52 55 54 50 47 52 58 60 61 59 63 88 143 194 204 199 196 197 190 184 181 173 167 162 157 151 142 134 131 126 122 122 120 109 100
87 76 66 61 44 39 41 35 39 43 40 42 42 41 44 49 51 48 44 46 51 53 54 52 47 52 71 229 228 221 217 210 202 193 187 181 172 167 162 154 142 137 135 129 126 124 123 115 108
86 75 72 60 33 37 36 33 34 37 34 36 39 37 39 44 45 46 44 43 44 48 46 42 38 21 314 245 233 232 226 215 205 193 183 181 177 171 167 159 148 140 138 137 135 133 130 122 113
82 72 72 52 34 31 29 35 31 27 31 34 35 33 35 37 38 40 40 40 40 40 39 34 28 13 318 257 243 239 228 221 210 199 188 185 177 171 169 162 154 146 141 138 137 138 136 123 116
80 73 69 47 25 26 23 24 26 25 24 27 27 27 31 32 32 33 34 34 36 34 31 22 13 1 333 279 251 240 232 225 216 206 196 192 182 170 165 164 161 150 138 139 136 135 133 126 118
79 75 73 50 14 16 22 21 17 17 16 20 19 20 26 28 27 27 28 29 32 30 26 18 6 352 333 301 270 247 232 223 221 214 199 189 177 171 159 158 159 151 141 140 141 139 133 127 123
88 90 81 57 15 3 14 15 14 16 17 19 16 15 19 23 23 22 25 28 28 25 18 10 2 350 335 311 282 253 232 221 220 217 203 190 181 172 165 160 154 148 149 146 141 142 134 130 132
89 86 82 60 9 356 8 12 11 16 19 18 15 12 14 18 18 18 20 22 21 18 14 9 358 347 336 327 305 259 239 228 221 216 205 195 188 178 170 161 149 151 152 152 144 146 141 141 141
84 76 73 62 11 358 359 5 8 7 12 12 9 7 7 10 10 11 12 12 11 11 9 7 2 351 336 325 317 278 246 227 219 214 206 208 196 187 175 165 157 156 156 153 151 152 148 147 147
81 57 58 9 328 13 7 1 0 356 355 2 1 1 2 2 4 6 8 8 8 7 4 359 1 353 345 334 332 306 270 270 236 224 214 208 192 187 181 175 165 164 163 159 158 156 154 154 144
92 67 48 338 334 4 11 8 355 350 351 355 355 354 357 2 4 5 6 4 2 3 4 358 354 351 340 327 326 322 310 318 301 225 205 210 201 196 189 183 179 175 175 168 171 161 153 149 147
194 239 325 353 351 343 7 1 351 349 352 350 351 355 357 2 6 3 4 2 360 358 358 357 351 349 341 331 326 319 334 347 334 281 208 211 215 203 198 196 197 188 193 189 182 166 154 151 154
182 173 14 351 325 328 349 354 345 346 349 348 351 356 358 1 3 2 2 1 359 357 353 351 350 352 345 335 333 327 336 335 339 257 240 241 243 236 220 214 209 202 202 200 194 179 176 172 174
132 85 26 336 332 329 341 337 341 337 340 345 353 358 0 359 358 358 358 357 356 355 355 352 349 346 343 334 334 324 318 312 296 284 260 260 260 255 243 225 219 214 208 214 208 198 194 187 184
66 43 350 313 314 321 342 340 330 331 335 341 349 351 357 356 353 354 353 352 352 351 351 353 350 344 338 331 327 319 305 303 285 281 271 271 276 262 254 239 231 225 217 219 213 200 199 196 199
16 331 303 290 302 311 328 324 319 326 330 333 339 343 348 350 349 350 350 349 350 350 348 348 347 344 338 327 320 314 303 295 285 274 275 277 276 266 259 245 237 236 228 221 218 213 208 211 217
236 258 265 273 287 293 306 304 310 320 325 326 331 335 341 345 347 349 350 350 349 348 346 344 346 346 336 326 313 311 308 298 290 277 277 279 274 264 251 246 241 241 235 226 225 225 223 225 231
217 210 226 255 269 278 287 291 301 314 319 322 326 327 332 339 342 345 345 347 348 347 342 341 342 339 335 325 313 305 299 295 293 284 272 274 272 263 250 243 245 243 238 234 234 237 236 238 241
228 223 236 264 277 281 287 291 292 302 314 316 321 323 326 332 337 340 342 343 344 344 342 337 335 333 328 325 318 306 292 288 291 284 275 271 267 261 253 244 245 244 242 241 238 240 241 246 249
239 238 245 254 267 292 312 314 302 302 309 313 321 326 326 328 332 335 338 341 341 339 339 336 332 329 324 320 314 309 297 291 286 283 277 272 266 259 251 246 247 248 246 246 243 243 248 251 253
246 256 253 254 263 278 277 287 289 300 305 315 321 323 324 324 330 331 336 339 339 337 336 334 331 327 324 325 320 308 302 298 294 289 282 275 271 264 253 250 251 251 250 248 246 247 252 254 257
237 244 250 257 263 262 262 274 284 295 299 307 311 318 320 322 327 328 331 332 333 333 331 330 331 328 323 321 319 308 301 299 297 294 285 278 274 264 256 252 254 252 253 253 250 251 254 257 260
243 246 251 260 269 276 273 264 271 276 282 297 307 315 317 319 323 324 324 324 324 327 328 328 328 328 323 318 317 309 300 298 295 293 294 281 274 269 265 265 260 257 257 257 254 252 256 261 263
245 245 252 273 283 279 269 260 262 273 285 292 300 307 313 315 318 321 321 320 321 323 324 326 325 324 320 314 309 306 301 297 295 292 290 284 278 272 271 272 268 263 260 259 258 258 261 264 267
245 240 236 247 278 286 282 255 262 278 288 291 296 304 310 312 317 321 321 322 322 322 323 323 323 321 318 311 302 299 297 295 294 291 288 284 283 282 283 279 274 268 265 262 260 262 264 266 268
238 241 238 247 258 276 280 272 268 279 294 298 299 305 309 311 316 320 322 322 321 320 321 321 320 320 319 313 306 300 294 291 289 290 290 285 285 286 286 283 280 275 269 269 268 268 270 271 273
232 235 242 241 247 254 267 269 265 269 288 299 303 306 308 310 314 319 321 322 322 322 322 321 320 323 322 318 311 303 300 296 297 297 294 288 287 289 288 288 282 279 277 274 274 273 273 274 275
237 233 231 236 238 247 262 269 271 276 280 294 300 301 305 307 309 316 320 322 323 324 324 322 318 316 321 318 312 306 301 295 294 295 294 293 292 290 288 284 283 283 282 282 281 279 278 278 278
240 241 237 236 238 238 250 272 273 277 281 285 291 294 301 302 305 307 314 316 318 320 322 322 322 321 320 319 316 315 311 303 297 295 294 291 294 295 288 285 285 286 286 286 288 286 282 281 281
Height
5911 5911 5910 5908 5908 5910 5909 5909 5908 5906 5905 5904 5902 5901 5900 5900 5900 5901 5898 5896 5896 5896 5896 5896 5896 5896 5897 5897 5897 5897 5897 5897 5897 5897 5897 5897 5898 5898 5898 5899 5899 5899 5900 5900 5901 5901 5901 5901 5902
5914 5914 5911 5910 5913 5913 5913 5911 5910 5909 5907 5906 5904 5903 5902 5901 5901 5900 5898 5898 5897 5897 5897 5897 5897 5897 5897 5897 5897 5898 5897 5897 5898 5898 5898 5898 5898 5899 5899 5899 5900 5900 5900 5901 5901 5902 5902 5902 5903
5916 5915 5913 5915 5917 5916 5916 5914 5912 5910 5910 5908 5907 5906 5904 5903 5902 5901 5900 5899 5899 5898 5898 5897 5897 5898 5898 5898 5898 5898 5898 5898 5898 5898 5898 5899 5899 5899 5899 5900 5900 5901 5901 5901 5902 5903 5903 5903 5904
5918 5916 5917 5920 5920 5919 5918 5917 5915 5913 5912 5910 5909 5908 5906 5905 5904 5902 5901 5901 5900 5899 5899 5898 5898 5898 5898 5898 5899 5899 5899 5899 5899 5899 5899 5899 5899 5900 5900 5900 5901 5901 5902 5902 5903 5903 5904 5904 5904
5918 5918 5920 5922 5922 5922 5921 5919 5918 5916 5914 5913 5911 5909 5908 5906 5905 5904 5902 5902 5901 5900 5900 5899 5899 5899 5899 5899 5899 5899 5899 5899 5899 5899 5899 5900 5900 5900 5901 5901 5902 5902 5902 5903 5904 5904 5905 5905 5905
5920 5921 5924 5925 5925 5925 5923 5921 5920 5918 5916 5914 5913 5911 5909 5908 5907 5905 5904 5903 5902 5901 5901 5900 5900 5899 5899 5899 5899 5899 5899 5899 5900 5900 5900 5900 5900 5901 5901 5902 5902 5903 5903 5904 5904 5905 5905 5906 5906
5923 5925 5927 5928 5927 5926 5925 5923 5922 5920 5918 5917 5915 5912 5911 5909 5908 5906 5905 5904 5903 5902 5901 5901 5900 5900 5899 5899 5899 5899 5899 5899 5900 5900 5900 5901 5901 5901 5902 5902 5903 5903 5904 5904 5905 5906 5906 5907 5907
5925 5927 5928 5931 5930 5929 5927 5926 5924 5922 5920 5919 5916 5914 5912 5911 5909 5908 5906 5905 5904 5903 5902 5901 5900 5900 5900 5899 5899 5899 5899 5900 5900 5900 5901 5901 5901 5902 5902 5903 5903 5904 5904 5905 5906 5906 5907 5907 5908
5928 5930 5931 5933 5933 5931 5929 5927 5926 5923 5921 5919 5918 5916 5914 5912 5910 5909 5907 5906 5905 5904 5902 5901 5900 5900 5900 5899 5899 5899 5899 5900 5900 5900 5901 5902 5902 5902 5903 5903 5904 5904 5905 5905 5906 5907 5908 5908 5909
5930 5931 5932 5934 5934 5932 5930 5929 5927 5924 5922 5920 5919 5917 5914 5912 5911 5909 5908 5907 5905 5904 5903 5901 5900 5900 5900 5899 5899 5899 5899 5899 5900 5900 5901 5901 5902 5902 5903 5904 5904 5905 5906 5906 5907 5907 5908 5909 5910
5932 5932 5934 5934 5933 5932 5932 5931 5929 5926 5924 5921 5919 5918 5915 5912 5911 5910 5908 5907 5906 5905 5904 5902 5901 5900 5900 5899 5899 5899 5899 5899 5900 5900 5901 5901 5901 5903 5903 5904 5905 5905 5906 5907 5907 5908 5909 5909 5910
5933 5934 5934 5934 5933 5932 5932 5932 5930 5928 5926 5923 5920 5918 5915 5913 5911 5910 5908 5908 5907 5905 5904 5902 5901 5900 5900 5900 5900 5899 5899 5900 5900 5900 5901 5901 5901 5903 5904 5905 5905 5906 5906 5907 5908 5909 5909 5910 5910
5934 5934 5934 5934 5934 5933 5932 5932 5931 5929 5927 5924 5921 5918 5915 5913 5911 5910 5909 5908 5907 5905 5904 5902 5901 5900 5900 5900 5900 5900 5900 5900 5900 5900 5901 5901 5902 5903 5904 5904 5905 5906 5907 5908 5908 5909 5910 5910 5911
5932 5933 5934 5934 5934 5933 5932 5932 5931 5929 5928 5925 5922 5919 5916 5913 5912 5911 5910 5908 5907 5905 5904 5903 5901 5900 5900 5900 5900 5900 5900 5900 5900 5901 5902 5902 5903 5903 5904 5904 5905 5906 5907 5907 5908 5909 5910 5910 5911
5932 5933 5935 5935 5934 5934 5933 5933 5932 5930 5928 5926 5923 5920 5917 5915 5914 5912 5911 5909 5907 5906 5904 5903 5902 5901 5900 5900 5900 5900 5900 5900 5901 5901 5902 5902 5903 5903 5904 5904 5905 5906 5906 5907 5908 5909 5910 5910 5911
5932 5934 5935 5936 5935 5934 5934 5933 5932 5930 5928 5926 5924 5921 5919 5917 5915 5913 5911 5909 5908 5906 5904 5903 5902 5901 5900 5900 5900 5900 5900 5900 5900 5901 5901 5902 5902 5903 5903 5904 5904 5905 5906 5907 5908 5909 5910 5910 5911
5934 5936 5938 5938 5936 5935 5935 5934 5932 5930 5928 5925 5923 5921 5919 5917 5916 5914 5911 5909 5908 5906 5905 5903 5902 5900 5900 5900 5899 5899 5899 5900 5900 5900 5900 5901 5901 5902 5902 5903 5904 5905 5906 5907 5908 5909 5909 5910 5911
5935 5938 5939 5939 5936 5935 5935 5934 5932 5930 5928 5925 5924 5922 5920 5918 5916 5914 5912 5910 5908 5906 5905 5903 5901 5900 5899 5899 5899 5898 5899 5899 5899 5899 5899 5899 5900 5900 5901 5902 5903 5904 5905 5906 5907 5908 5909 5909 5910
5932 5934 5936 5937 5935 5934 5934 5934 5932 5930 5928 5925 5923 5921 5919 5917 5915 5913 5911 5909 5908 5906 5904 5902 5901 5900 5899 5898 5898 5897 5898 5898 5898 5898 5898 5898 5898 5899 5900 5901 5902 5903 5904 5905 5906 5907 5908 5908 5909
5929 5932 5934 5935 5933 5932 5932 5932 5931 5929 5927 5925 5922 5920 5918 5916 5915 5912 5911 5909 5907 5905 5904 5902 5900 5899 5898 5897 5897 5896 5896 5896 5896 5896 5896 5896 5897 5897 5899 5900 5901 5902 5903 5904 5905 5906 5907 5907 5908
5927 5930 5932 5933 5932 5931 5931 5931 5929 5927 5926 5924 5921 5919 5917 5915 5914 5912 5910 5908 5906 5905 5903 5901 5899 5898 5896 5896 5895 5895 5895 5895 5895 5895 5895 5895 5895 5896 5897 5898 5899 5900 5901 5902 5903 5904 5905 5906 5906
5925 5928 5928 5929 5929 5930 5932 5932 5929 5926 5923 5922 5920 5918 5916 5914 5912 5910 5909 5907 5905 5903 5902 5900 5898 5897 5895 5895 5894 5894 5893 5893 5893 5894 5894 5894 5894 5895 5896 5897 5898 5899 5899 5900 5901 5902 5903 5904 5904
5923 5924 5925 5926 5926 5927 5928 5929 5928 5924 5922 5921 5918 5917 5915 5913 5911 5909 5907 5906 5904 5902 5901 5899 5897 5895 5895 5894 5893 5892 5893 5892 5892 5892 5893 5893 5893 5893 5894 5895 5896 5897 5897 5898 5899 5900 5900 5901 5902
5919 5921 5922 5923 5924 5925 5926 5927 5927 5923 5920 5919 5916 5916 5914 5912 5910 5908 5906 5904 5903 5901 5899 5898 5896 5895 5894 5893 5892 5891 5891 5891 5891 5891 5891 5891 5892 5892 5893 5893 5894 5894 5895 5896 5896 5897 5898 5898 5899
5916 5919 5920 5921 5922 5923 5923 5924 5924 5920 5919 5917 5915 5914 5912 5910 5908 5906 5905 5902 5901 5899 5898 5896 5895 5894 5892 5892 5891 5890 5890 5890 5889 5890 5890 5890 5890 5891 5891 5891 5891 5892 5892 5893 5894 5894 5895 5895 5896
5913 5916 5918 5921 5922 5919 5919 5920 5920 5918 5916 5915 5913 5912 5910 5908 5907 5905 5903 5901 5899 5897 5896 5895 5894 5892 5891 5890 5889 5889 5888 5888 5888 5888 5888 5889 5889 5889 5889 5889 5889 5889 5889 5890 5890 5891 5891 5892 5892
5909 5912 5915 5917 5919 5920 5918 5918 5916 5914 5913 5912 5910 5909 5908 5906 5905 5903 5901 5899 5897 5896 5894 5893 5892 5891 5890 5888 5888 5887 5886 5886 5885 5886 5887 5887 5887 5887 5887 5887 5887 5887 5887 5887 5887 5888 5888 5888 5888
5906 5909 5912 5913 5915 5916 5918 5915 5912 5909 5910 5909 5908 5907 5906 5904 5902 5901 5899 5897 5896 5895 5893 5892 5890 5889 5888 5887 5886 5886 5885 5885 5884 5885 5885 5885 5885 5885 5884 5884 5884 5884 5884 5884 5884 5884 5884 5885 5885
5901 5904 5906 5909 5911 5913 5914 5913 5908 5907 5906 5907 5905 5904 5903 5901 5899 5898 5897 5896 5895 5894 5892 5891 5889 5888 5887 5886 5885 5885 5884 5883 5883 5883 5883 5883 5883 5882 5882 5882 5882 5882 5882 5881 5881 5881 5880 5880 5880
5896 5899 5902 5904 5906 5908 5910 5912 5904 5904 5904 5903 5902 5900 5900 5899 5897 5896 5896 5895 5894 5893 5891 5890 5888 5887 5886 5885 5885 5884 5883 5882 5882 5881 5881 5880 5880 5880 5879 5879 5879 5879 5878 5878 5877 5877 5876 5876 5875